Iowa City, IA

11:55 AM CDT on June 29, 2017 (GMT -0500)
Iowa City Municipal

Weather History for KIOW - June, 2013

Change the Weather History Date:

Thursday, June 27, 2013

  Actual Average Record
Temperature  
Mean Temperature 79 °F 74 °F  
Max Temperature 88 °F 84 °F 99 °F (2012)
Min Temperature 70 °F 64 °F 48 °F (2017)
Degree Days  
Heating Degree Days 0 0  
Month to date heating degree days 21 14  
Since 1 June heating degree days 21 14  
Since 1 July heating degree days 6449 6375  
Cooling Degree Days 14 9  
Month to date cooling degree days 182 183  
Year to date cooling degree days 269 244  
Since 1 June cooling degree days 182 183  
Growing Degree Days 29 (Base 50)    
Moisture  
Dew Point 67 °F    
Average Humidity 73    
Maximum Humidity 90    
Minimum Humidity 55    
Precipitation  
Precipitation 0.00 in 0.19 in 1.64 in (1969)
Month to date precipitation 4.56 4.08  
Year to date precipitation 25.80 16.17  
Sea Level Pressure  
Sea Level Pressure 29.83 in    
Wind  
Wind Speed 10 mph (WNW)    
Max Wind Speed 24 mph    
Max Gust Speed 31 mph    
Visibility 10 miles    
Events      
T = Trace of Precipitation, MM = Missing Value Source: NWS Daily Summary

Daily Weather History Graph

Daily Weather History Graph

Search for Another Location

Airport or City:

Trip Planner

Search our weather history database for the weather conditions in past years. The results will help you decide how hot, cold, wet, or windy it might be!

Date:

Astronomy

Jun. 27, 2013 Rise Set
Actual Time 5:33 AM CDT 8:44 PM CDT
Civil Twilight 4:59 AM CDT 9:18 PM CDT
Nautical Twilight 4:16 AM CDT 10:02 PM CDT
Astronomical Twilight 3:23 AM CDT 10:54 PM CDT
Moon 11:37 PM CDT (6/27) 10:39 AM CDT (6/27)
Length of Visible Light 16h 18m
Length of Day
15h 10m
Waning Gibbous, 76% of the Moon is Illuminated
Jun 27
Waning Gibbous
Jun 29
Last Quarter
Jul 8
New
Jul 15
First Quarter
Jul 22
Full

Hourly Weather History & Observations

Time (CDT) Temp. Heat Index Dew Point Humidity Pressure Visibility Wind Dir Wind Speed Gust Speed Precip Events Conditions
12:52 AM 75.9 °F - 71.1 °F 85% 29.80 in 10.0 mi NW 6.9 mph - N/A   Clear
1:52 AM 73.0 °F - 69.1 °F 87% 29.82 in 10.0 mi WNW 4.6 mph - N/A   Clear
2:52 AM 72.0 °F - 68.0 °F 87% 29.82 in 10.0 mi NW 5.8 mph - N/A   Clear
3:52 AM 73.0 °F - 66.9 °F 81% 29.83 in 10.0 mi NW 9.2 mph - N/A   Clear
4:52 AM 72.0 °F - 66.0 °F 81% 29.83 in 10.0 mi NW 5.8 mph - N/A   Clear
5:52 AM 71.1 °F - 66.0 °F 84% 29.84 in 10.0 mi NW 5.8 mph - N/A   Clear
6:52 AM 72.0 °F - 66.0 °F 81% 29.86 in 10.0 mi WNW 5.8 mph - N/A   Clear
7:52 AM 75.9 °F - 66.9 °F 74% 29.86 in 10.0 mi WNW 5.8 mph - N/A   Clear
8:52 AM 80.1 °F 82.7 °F 68.0 °F 67% 29.87 in 10.0 mi WNW 5.8 mph - N/A   Clear
9:52 AM 82.0 °F 85.5 °F 69.1 °F 65% 29.86 in 10.0 mi West 5.8 mph - N/A   Clear
10:52 AM 84.0 °F 87.8 °F 69.1 °F 61% 29.85 in 10.0 mi West 6.9 mph - N/A   Clear
11:52 AM 87.1 °F 92.8 °F 71.1 °F 59% 29.84 in 10.0 mi WSW 11.5 mph - N/A   Clear
12:52 PM 87.1 °F 91.3 °F 69.1 °F 55% 29.85 in 10.0 mi West 20.7 mph 25.3 mph N/A   Clear
1:52 PM 84.0 °F 86.5 °F 66.9 °F 56% 29.86 in 10.0 mi West 20.7 mph 26.5 mph N/A   Clear
2:52 PM 82.0 °F 84.9 °F 68.0 °F 62% 29.86 in 10.0 mi WNW 15.0 mph 23.0 mph N/A   Clear
3:52 PM 82.9 °F 85.0 °F 66.0 °F 56% 29.84 in 10.0 mi WNW 15.0 mph 23.0 mph N/A   Clear
4:52 PM 84.0 °F 86.3 °F 66.0 °F 55% 29.83 in 10.0 mi WNW 12.7 mph - N/A   Clear
5:52 PM 84.9 °F 87.1 °F 66.0 °F 53% 29.82 in 10.0 mi WNW 16.1 mph - N/A   Clear
6:52 PM 84.0 °F 86.5 °F 66.9 °F 56% 29.80 in 10.0 mi WNW 11.5 mph - N/A   Clear
7:52 PM 82.0 °F 84.5 °F 66.9 °F 60% 29.80 in 10.0 mi West 8.1 mph - N/A   Clear
8:52 PM 79.0 °F - 66.9 °F 66% 29.79 in 10.0 mi WNW 6.9 mph - N/A   Clear
9:52 PM 75.9 °F - 66.9 °F 74% 29.81 in 10.0 mi WNW 6.9 mph - N/A   Clear
10:52 PM 73.0 °F - 66.0 °F 79% 29.83 in 10.0 mi West 6.9 mph - N/A   Clear
11:52 PM 71.1 °F - 64.9 °F 81% 29.84 in 10.0 mi West 8.1 mph - N/A   Clear